TimeCST,TemperatureF,Dew PointF,Humidity,Sea Level PressureIn,VisibilityMPH,Wind Direction,Wind SpeedMPH,Gust SpeedMPH,PrecipitationIn,Events,Conditions,WindDirDegrees,DateUTC
12:15 AM,51.8,50.0,94,29.81,5.0,Calm,Calm,-,N/A,,Overcast,0,2012-12-09 06:15:00
12:35 AM,50.0,50.0,100,29.81,4.0,Calm,Calm,-,N/A,,Overcast,0,2012-12-09 06:35:00
1:15 AM,50.0,50.0,100,29.80,3.0,Calm,Calm,-,N/A,,Overcast,0,2012-12-09 07:15:00
1:35 AM,50.0,50.0,100,29.80,3.0,Calm,Calm,-,N/A,,Overcast,0,2012-12-09 07:35:00
1:55 AM,50.0,48.2,94,29.80,2.5,Calm,Calm,-,N/A,,Overcast,0,2012-12-09 07:55:00
2:15 AM,48.2,48.2,100,29.80,3.0,NNW,3.5,-,N/A,,Overcast,330,2012-12-09 08:15:00
2:35 AM,48.2,48.2,100,29.79,2.5,Calm,Calm,-,N/A,,Overcast,0,2012-12-09 08:35:00
2:55 AM,48.2,48.2,100,29.78,2.5,NNE,3.5,-,N/A,,Overcast,30,2012-12-09 08:55:00
3:15 AM,48.2,48.2,100,29.79,2.0,NE,4.6,-,N/A,,Overcast,40,2012-12-09 09:15:00
3:35 AM,50.0,50.0,100,29.79,2.5,NNE,3.5,-,N/A,,Overcast,30,2012-12-09 09:35:00
3:55 AM,48.2,48.2,100,29.79,2.5,NNE,5.8,-,N/A,,Overcast,30,2012-12-09 09:55:00
4:15 AM,48.2,48.2,100,29.78,2.5,NE,3.5,-,N/A,,Overcast,40,2012-12-09 10:15:00
4:35 AM,48.2,48.2,100,29.78,2.5,NE,3.5,-,N/A,,Overcast,50,2012-12-09 10:35:00
4:55 AM,48.2,48.2,100,29.77,2.5,NE,4.6,-,N/A,,Overcast,50,2012-12-09 10:55:00
5:15 AM,48.2,48.2,100,29.77,2.5,NE,3.5,-,N/A,,Overcast,50,2012-12-09 11:15:00
5:55 AM,50.0,48.2,94,29.77,4.0,NE,4.6,-,N/A,,Overcast,40,2012-12-09 11:55:00
6:15 AM,50.0,50.0,100,29.77,5.0,ENE,6.9,-,N/A,,Overcast,60,2012-12-09 12:15:00
6:35 AM,50.0,50.0,100,29.77,5.0,ENE,5.8,-,N/A,Rain,Rain,70,2012-12-09 12:35:00
6:55 AM,50.0,50.0,100,29.79,5.0,SE,5.8,-,N/A,,Overcast,140,2012-12-09 12:55:00
7:15 AM,50.0,50.0,100,29.80,4.0,Calm,Calm,-,N/A,Rain,Rain,0,2012-12-09 13:15:00
7:35 AM,50.0,50.0,100,29.79,4.0,North,3.5,-,N/A,,Overcast,360,2012-12-09 13:35:00
7:55 AM,50.0,50.0,100,29.79,2.0,Calm,Calm,-,N/A,,Overcast,0,2012-12-09 13:55:00
8:35 AM,50.0,50.0,100,29.80,1.8,NNW,9.2,-,N/A,,Overcast,330,2012-12-09 14:35:00
8:55 AM,48.2,48.2,100,29.81,1.2,NNW,9.2,-,N/A,,Overcast,340,2012-12-09 14:55:00
9:15 AM,48.2,46.4,93,29.82,2.0,North,8.1,-,N/A,Rain,Light Rain,350,2012-12-09 15:15:00
9:35 AM,46.4,46.4,100,29.83,2.5,NNW,11.5,-,N/A,,Overcast,340,2012-12-09 15:35:00
9:55 AM,46.4,46.4,100,29.84,2.5,North,12.7,17.3,N/A,,Overcast,350,2012-12-09 15:55:00
10:15 AM,46.4,44.6,93,29.84,3.0,North,12.7,18.4,N/A,,Overcast,350,2012-12-09 16:15:00
10:35 AM,46.4,44.6,93,29.84,4.0,North,12.7,17.3,N/A,,Overcast,350,2012-12-09 16:35:00
10:55 AM,46.4,44.6,93,29.84,5.0,North,11.5,16.1,N/A,,Overcast,360,2012-12-09 16:55:00
11:15 AM,44.6,42.8,93,29.85,7.0,NNW,11.5,18.4,N/A,,Overcast,340,2012-12-09 17:15:00
11:35 AM,44.6,42.8,93,29.84,7.0,North,13.8,-,N/A,,Overcast,350,2012-12-09 17:35:00
11:55 AM,44.6,42.8,93,29.84,7.0,North,11.5,18.4,N/A,,Overcast,350,2012-12-09 17:55:00
12:15 PM,44.6,42.8,93,29.84,7.0,NNW,15.0,19.6,N/A,,Overcast,340,2012-12-09 18:15:00
12:35 PM,44.6,42.8,93,29.84,7.0,North,15.0,18.4,N/A,,Overcast,350,2012-12-09 18:35:00
12:55 PM,42.8,41.0,93,29.84,7.0,NNW,13.8,21.9,N/A,,Overcast,340,2012-12-09 18:55:00
1:15 PM,42.8,41.0,93,29.84,7.0,NNW,12.7,-,N/A,,Overcast,340,2012-12-09 19:15:00
1:35 PM,44.6,41.0,87,29.84,7.0,NNW,11.5,-,N/A,,Overcast,330,2012-12-09 19:35:00
1:55 PM,42.8,41.0,93,29.84,7.0,North,13.8,17.3,N/A,,Overcast,350,2012-12-09 19:55:00
2:35 PM,44.6,41.0,87,29.86,7.0,NNW,10.4,-,N/A,,Overcast,340,2012-12-09 20:35:00
2:55 PM,44.6,41.0,87,29.86,10.0,NW,10.4,-,N/A,,Overcast,320,2012-12-09 20:55:00
3:15 PM,44.6,41.0,87,29.88,10.0,NW,10.4,-,N/A,,Overcast,320,2012-12-09 21:15:00
3:35 PM,44.6,39.2,81,29.88,10.0,NNW,10.4,-,N/A,,Overcast,330,2012-12-09 21:35:00
3:55 PM,44.6,39.2,81,29.88,10.0,NW,8.1,-,N/A,,Overcast,310,2012-12-09 21:55:00
4:15 PM,44.6,39.2,81,29.89,10.0,NW,15.0,-,N/A,,Overcast,320,2012-12-09 22:15:00
4:35 PM,44.6,39.2,81,29.89,10.0,NW,13.8,-,N/A,,Overcast,320,2012-12-09 22:35:00
4:55 PM,42.8,37.4,81,29.89,10.0,NW,16.1,20.7,N/A,,Overcast,320,2012-12-09 22:55:00
5:15 PM,42.8,37.4,81,29.90,10.0,NW,12.7,-,N/A,,Overcast,320,2012-12-09 23:15:00
5:55 PM,42.8,35.6,76,29.92,10.0,NW,16.1,23.0,N/A,,Overcast,320,2012-12-09 23:55:00
6:15 PM,41.0,35.6,81,29.93,10.0,NW,13.8,17.3,N/A,,Overcast,320,2012-12-10 00:15:00
6:35 PM,41.0,33.8,76,29.94,10.0,NW,16.1,-,N/A,,Overcast,320,2012-12-10 00:35:00
6:55 PM,41.0,32.0,70,29.95,10.0,NNW,17.3,24.2,N/A,,Overcast,330,2012-12-10 00:55:00
7:15 PM,37.4,30.2,75,29.96,10.0,NW,19.6,25.3,N/A,,Overcast,320,2012-12-10 01:15:00
7:35 PM,37.4,28.4,70,29.96,10.0,NW,16.1,25.3,N/A,,Scattered Clouds,320,2012-12-10 01:35:00
7:55 PM,35.6,28.4,75,29.97,10.0,NW,15.0,24.2,N/A,,Clear,320,2012-12-10 01:55:00
8:35 PM,32.0,24.8,75,29.98,10.0,NW,16.1,19.6,N/A,,Clear,320,2012-12-10 02:35:00
8:55 PM,32.0,23.0,69,29.99,10.0,NNW,15.0,23.0,N/A,,Clear,330,2012-12-10 02:55:00
9:15 PM,32.0,23.0,69,29.99,10.0,NNW,16.1,-,N/A,,Clear,330,2012-12-10 03:15:00
9:35 PM,30.2,21.2,69,30.00,10.0,NNW,19.6,26.5,N/A,,Clear,330,2012-12-10 03:35:00
9:55 PM,30.2,19.4,64,30.00,10.0,NNW,18.4,25.3,N/A,,Clear,330,2012-12-10 03:55:00
10:15 PM,28.4,19.4,69,30.01,10.0,NNW,15.0,-,N/A,,Clear,330,2012-12-10 04:15:00
10:35 PM,28.4,17.6,64,30.02,10.0,NW,15.0,19.6,N/A,,Clear,320,2012-12-10 04:35:00
10:55 PM,28.4,17.6,64,30.03,10.0,NW,13.8,20.7,N/A,,Clear,320,2012-12-10 04:55:00
11:15 PM,28.4,17.6,64,30.02,10.0,NW,13.8,-,N/A,,Clear,320,2012-12-10 05:15:00
11:35 PM,28.4,17.6,64,30.03,10.0,NW,10.4,-,N/A,,Clear,320,2012-12-10 05:35:00
11:55 PM,26.6,17.6,69,30.02,10.0,NW,11.5,18.4,N/A,,Clear,320,2012-12-10 05:55:00